Location: Biharia
(46.4333°N, 22.8000°E)
Time: 17:24:20
(UTC+00:00)

FENGYUN 1C DEB - Pass Details

Date: 12 August 2022
Orbit: 796 x 915 km, 98.9° (Epoch: 24 September)

Event Time Altitude Azimuth Distance (km) Brightness Sun altitude
Rises 00:38:38 0° 5° (N) 3,466 ? -22.4°
Reaches altitude 10° 00:41:24 10° 353° (N) 2,503 ? -22.2°
Maximum altitude 00:45:51 26° 300° (WNW) 1,618 ? -21.8°
Enters shadow 00:47:23 23° 274° (W) 1,732 ? -21.6°
